Time,TemperatureF,DewpointF,PressureIn,WindDirection,WindDirectionDegrees,WindSpeedMPH,WindSpeedGustMPH,Humidity,HourlyPrecipIn,Conditions,Clouds,dailyrainin,SoftwareType,DateUTC
2013-08-08 00:01:00,80.3,71.7,30.08,SE,138,2.0,12.0,75,0.00,,---,0.00,VWS V13.00,2013-08-08 04:01:00,
2013-08-08 00:06:00,80.3,71.7,30.08,SE,143,11.0,12.0,75,0.00,,---,0.00,VWS V13.00,2013-08-08 04:06:00,
2013-08-08 00:11:00,80.4,71.8,30.08,East,86,4.0,12.0,75,0.00,,---,0.00,VWS V13.00,2013-08-08 04:11:00,
2013-08-08 00:16:00,80.3,72.1,30.08,SSE,155,5.0,12.0,76,0.00,,---,0.00,VWS V13.00,2013-08-08 04:16:00,
2013-08-08 00:21:00,80.4,72.2,30.08,SE,133,11.0,12.0,76,0.00,,---,0.00,VWS V13.00,2013-08-08 04:21:00,
2013-08-08 00:26:00,80.4,72.2,30.08,SSE,151,7.0,12.0,76,0.00,,---,0.00,VWS V13.00,2013-08-08 04:26:00,
2013-08-08 00:31:00,80.4,72.2,30.08,SE,133,2.0,12.0,76,0.00,,---,0.00,VWS V13.00,2013-08-08 04:31:00,
2013-08-08 00:36:00,80.4,72.2,30.08,SE,135,8.0,11.0,76,0.00,,---,0.00,VWS V13.00,2013-08-08 04:36:00,
2013-08-08 00:41:00,80.4,72.2,30.08,SE,124,8.0,13.0,76,0.00,,---,0.00,VWS V13.00,2013-08-08 04:41:00,
2013-08-08 00:46:00,80.5,72.2,30.08,SE,136,10.0,13.0,76,0.00,,---,0.00,VWS V13.00,2013-08-08 04:46:00,
2013-08-08 00:51:00,80.4,72.2,30.08,SSE,150,6.0,13.0,76,0.00,,---,0.00,VWS V13.00,2013-08-08 04:51:00,
2013-08-08 00:56:00,80.5,72.2,30.07,ESE,121,8.0,13.0,76,0.00,,---,0.00,VWS V13.00,2013-08-08 04:56:00,
2013-08-08 01:01:00,80.5,72.2,30.08,ESE,115,6.0,15.0,76,0.00,,---,0.00,VWS V13.00,2013-08-08 05:01:00,
2013-08-08 01:06:00,80.5,72.2,30.07,East,85,7.0,12.0,76,0.00,,---,0.00,VWS V13.00,2013-08-08 05:06:00,
2013-08-08 01:11:00,80.5,72.2,30.07,East,101,5.0,12.0,76,0.00,,---,0.00,VWS V13.00,2013-08-08 05:11:00,
2013-08-08 01:16:00,80.5,72.2,30.07,SSE,153,8.0,12.0,76,0.00,,---,0.00,VWS V13.00,2013-08-08 05:16:00,
2013-08-08 01:21:00,80.5,72.2,30.07,SE,138,6.0,12.0,76,0.00,,---,0.00,VWS V13.00,2013-08-08 05:21:00,
2013-08-08 01:26:00,80.5,72.2,30.07,SE,135,9.0,14.0,76,0.00,,---,0.00,VWS V13.00,2013-08-08 05:26:00,
2013-08-08 01:31:00,80.5,72.2,30.07,SSE,163,6.0,14.0,76,0.00,,---,0.00,VWS V13.00,2013-08-08 05:31:00,
2013-08-08 01:36:00,80.4,72.2,30.07,ESE,107,8.0,13.0,76,0.00,,---,0.00,VWS V13.00,2013-08-08 05:36:00,
2013-08-08 01:41:00,80.3,72.1,30.07,SE,133,11.0,13.0,76,0.00,,---,0.00,VWS V13.00,2013-08-08 05:41:00,
2013-08-08 01:46:00,80.3,72.1,30.07,ESE,123,6.0,15.0,76,0.00,,---,0.00,VWS V13.00,2013-08-08 05:46:00,
2013-08-08 01:51:00,80.3,72.4,30.07,SE,137,10.0,15.0,77,0.00,,---,0.00,VWS V13.00,2013-08-08 05:51:00,
2013-08-08 01:56:00,80.4,72.5,30.07,ESE,123,8.0,15.0,77,0.00,,---,0.00,VWS V13.00,2013-08-08 05:56:00,
2013-08-08 02:01:00,80.4,72.5,30.07,SE,141,7.0,15.0,77,0.00,,---,0.00,VWS V13.00,2013-08-08 06:01:00,
2013-08-08 02:06:00,80.5,72.6,30.07,SSE,150,5.0,11.0,77,0.00,,---,0.00,VWS V13.00,2013-08-08 06:06:00,
2013-08-08 02:11:00,80.5,72.6,30.07,SE,129,7.0,12.0,77,0.00,,---,0.00,VWS V13.00,2013-08-08 06:11:00,
2013-08-08 02:16:00,80.4,72.5,30.07,SE,142,6.0,12.0,77,0.00,,---,0.00,VWS V13.00,2013-08-08 06:16:00,
2013-08-08 02:21:00,80.4,72.5,30.06,ESE,105,7.0,12.0,77,0.00,,---,0.00,VWS V13.00,2013-08-08 06:21:00,
2013-08-08 02:26:00,80.3,72.4,30.06,SSE,154,10.0,12.0,77,0.00,,---,0.00,VWS V13.00,2013-08-08 06:26:00,
2013-08-08 02:31:00,80.3,72.4,30.06,SE,137,11.0,13.0,77,0.00,,---,0.00,VWS V13.00,2013-08-08 06:31:00,
2013-08-08 02:36:00,80.3,72.4,30.06,SE,140,7.0,11.0,77,0.00,,---,0.00,VWS V13.00,2013-08-08 06:36:00,
2013-08-08 02:41:00,80.3,72.4,30.06,SSE,153,12.0,12.0,77,0.00,,---,0.00,VWS V13.00,2013-08-08 06:41:00,
2013-08-08 02:46:00,80.3,72.4,30.06,SE,132,6.0,13.0,77,0.00,,---,0.00,VWS V13.00,2013-08-08 06:46:00,
2013-08-08 02:51:00,80.3,72.4,30.06,ESE,115,5.0,13.0,77,0.00,,---,0.00,VWS V13.00,2013-08-08 06:51:00,
2013-08-08 02:56:00,80.3,72.4,30.06,SSE,147,5.0,13.0,77,0.00,,---,0.00,VWS V13.00,2013-08-08 06:56:00,
2013-08-08 03:01:00,80.2,72.3,30.06,ESE,115,6.0,13.0,77,0.00,,---,0.00,VWS V13.00,2013-08-08 07:01:00,
2013-08-08 03:06:00,80.2,72.3,30.07,SE,140,4.0,12.0,77,0.00,,---,0.00,VWS V13.00,2013-08-08 07:06:00,
2013-08-08 03:11:00,80.2,72.3,30.06,SE,140,5.0,12.0,77,0.00,,---,0.00,VWS V13.00,2013-08-08 07:11:00,
2013-08-08 03:16:00,80.3,72.4,30.06,ESE,110,6.0,12.0,77,0.00,,---,0.00,VWS V13.00,2013-08-08 07:16:00,
2013-08-08 03:21:00,80.3,72.4,30.06,SSE,150,5.0,12.0,77,0.00,,---,0.00,VWS V13.00,2013-08-08 07:21:00,
2013-08-08 03:26:00,80.2,72.3,30.06,ESE,119,5.0,12.0,77,0.00,,---,0.00,VWS V13.00,2013-08-08 07:26:00,
2013-08-08 03:31:00,80.2,72.3,30.06,ESE,116,7.0,12.0,77,0.00,,---,0.00,VWS V13.00,2013-08-08 07:31:00,
2013-08-08 03:36:00,80.2,72.3,30.06,SE,128,6.0,12.0,77,0.00,,---,0.00,VWS V13.00,2013-08-08 07:36:00,
2013-08-08 03:41:00,80.2,72.3,30.06,SSE,155,8.0,13.0,77,0.00,,---,0.00,VWS V13.00,2013-08-08 07:41:00,
2013-08-08 03:46:00,80.2,72.3,30.06,SE,134,9.0,13.0,77,0.00,,---,0.00,VWS V13.00,2013-08-08 07:46:00,
2013-08-08 03:51:00,80.2,72.7,30.06,SE,136,10.0,13.0,78,0.00,,---,0.00,VWS V13.00,2013-08-08 07:51:00,
2013-08-08 03:56:00,80.2,72.7,30.06,SE,128,7.0,13.0,78,0.00,,---,0.00,VWS V13.00,2013-08-08 07:56:00,
2013-08-08 04:01:00,80.2,72.7,30.06,ESE,119,5.0,13.0,78,0.00,,---,0.00,VWS V13.00,2013-08-08 08:01:00,
2013-08-08 04:06:00,80.2,72.7,30.06,SE,134,11.0,13.0,78,0.00,,---,0.00,VWS V13.00,2013-08-08 08:06:00,
2013-08-08 04:11:00,80.2,72.7,30.06,ESE,117,8.0,14.0,78,0.00,,---,0.00,VWS V13.00,2013-08-08 08:11:00,
2013-08-08 04:16:00,80.1,72.6,30.06,SE,143,10.0,14.0,78,0.00,,---,0.00,VWS V13.00,2013-08-08 08:16:00,
2013-08-08 04:21:00,80.1,72.6,30.06,SE,138,9.0,14.0,78,0.00,,---,0.00,VWS V13.00,2013-08-08 08:21:00,
2013-08-08 04:26:00,80.2,72.7,30.06,SE,134,11.0,14.0,78,0.00,,---,0.00,VWS V13.00,2013-08-08 08:26:00,
2013-08-08 04:31:00,80.2,72.7,30.06,SE,134,8.0,14.0,78,0.00,,---,0.00,VWS V13.00,2013-08-08 08:31:00,
2013-08-08 04:36:00,80.2,72.7,30.06,ESE,118,12.0,14.0,78,0.00,,---,0.00,VWS V13.00,2013-08-08 08:36:00,
2013-08-08 04:41:00,80.1,72.6,30.05,SE,132,11.0,14.0,78,0.00,,---,0.00,VWS V13.00,2013-08-08 08:41:00,
2013-08-08 04:46:00,80.1,72.6,30.05,SE,134,7.0,14.0,78,0.00,,---,0.00,VWS V13.00,2013-08-08 08:46:00,
2013-08-08 04:51:00,80.1,72.6,30.05,East,90,7.0,14.0,78,0.00,,---,0.00,VWS V13.00,2013-08-08 08:51:00,
2013-08-08 04:56:00,80.0,72.5,30.06,ESE,118,8.0,14.0,78,0.00,,---,0.00,VWS V13.00,2013-08-08 08:56:00,
2013-08-08 05:01:00,80.0,72.5,30.05,SSE,157,6.0,14.0,78,0.00,,---,0.00,VWS V13.00,2013-08-08 09:01:00,
2013-08-08 05:06:00,80.0,72.5,30.05,SE,124,9.0,12.0,78,0.00,,---,0.00,VWS V13.00,2013-08-08 09:06:00,
2013-08-08 05:11:00,80.0,72.5,30.05,SE,126,7.0,13.0,78,0.00,,---,0.00,VWS V13.00,2013-08-08 09:11:00,
2013-08-08 05:16:00,80.0,72.5,30.05,ESE,113,6.0,13.0,78,0.00,,---,0.00,VWS V13.00,2013-08-08 09:16:00,
2013-08-08 05:21:00,80.0,72.5,30.05,SE,134,5.0,13.0,78,0.00,,---,0.00,VWS V13.00,2013-08-08 09:21:00,
2013-08-08 05:26:00,80.1,72.6,30.05,ESE,122,9.0,13.0,78,0.00,,---,0.00,VWS V13.00,2013-08-08 09:26:00,
2013-08-08 05:31:00,80.1,72.6,30.06,ESE,117,8.0,13.0,78,0.00,,---,0.00,VWS V13.00,2013-08-08 09:31:00,
2013-08-08 05:36:00,80.0,72.5,30.05,ESE,119,12.0,12.0,78,0.00,,---,0.00,VWS V13.00,2013-08-08 09:36:00,
2013-08-08 05:41:00,80.0,72.5,30.05,SE,124,12.0,12.0,78,0.00,,---,0.00,VWS V13.00,2013-08-08 09:41:00,
2013-08-08 05:46:00,80.1,72.6,30.05,SE,138,8.0,14.0,78,0.00,,---,0.00,VWS V13.00,2013-08-08 09:46:00,
2013-08-08 05:51:00,80.1,72.6,30.05,ESE,113,8.0,14.0,78,0.00,,---,0.00,VWS V13.00,2013-08-08 09:51:00,
2013-08-08 05:56:00,80.1,72.6,30.05,SE,146,8.0,14.0,78,0.00,,---,0.00,VWS V13.00,2013-08-08 09:56:00,
2013-08-08 06:01:00,80.1,73.0,30.05,ESE,108,7.0,14.0,79,0.00,,---,0.00,VWS V13.00,2013-08-08 10:01:00,
2013-08-08 06:06:00,80.2,73.1,30.05,SE,144,7.0,12.0,79,0.00,,---,0.00,VWS V13.00,2013-08-08 10:06:00,
2013-08-08 06:11:00,80.2,73.1,30.05,SE,126,12.0,12.0,79,0.00,,---,0.00,VWS V13.00,2013-08-08 10:11:00,
2013-08-08 06:16:00,80.2,73.1,30.06,SE,131,11.0,12.0,79,0.00,,---,0.00,VWS V13.00,2013-08-08 10:16:00,
2013-08-08 06:21:00,80.3,73.2,30.06,ESE,120,7.0,13.0,79,0.00,,---,0.00,VWS V13.00,2013-08-08 10:21:00,
2013-08-08 06:26:00,80.3,73.2,30.06,East,95,7.0,13.0,79,0.00,,---,0.00,VWS V13.00,2013-08-08 10:26:00,
2013-08-08 06:31:00,80.3,73.2,30.06,SE,128,8.0,13.0,79,0.00,,---,0.00,VWS V13.00,2013-08-08 10:31:00,
2013-08-08 06:36:00,80.3,73.2,30.06,ESE,114,8.0,11.0,79,0.00,,---,0.00,VWS V13.00,2013-08-08 10:36:00,
2013-08-08 06:41:00,80.3,73.2,30.06,ESE,116,9.0,12.0,79,0.00,,---,0.00,VWS V13.00,2013-08-08 10:41:00,
2013-08-08 06:46:00,80.3,73.2,30.06,SE,138,10.0,12.0,79,0.00,,---,0.00,VWS V13.00,2013-08-08 10:46:00,
2013-08-08 06:51:00,80.3,73.2,30.06,SE,130,13.0,13.0,79,0.00,,---,0.00,VWS V13.00,2013-08-08 10:51:00,
2013-08-08 06:56:00,80.4,73.3,30.06,ESE,112,6.0,13.0,79,0.00,,---,0.00,VWS V13.00,2013-08-08 10:56:00,
2013-08-08 07:01:00,80.4,73.3,30.06,SE,124,6.0,13.0,79,0.00,,---,0.00,VWS V13.00,2013-08-08 11:01:00,
2013-08-08 07:06:00,80.5,73.4,30.06,ESE,113,5.0,8.0,79,0.00,,---,0.00,VWS V13.00,2013-08-08 11:06:00,
2013-08-08 07:11:00,80.5,73.4,30.06,ESE,119,6.0,8.0,79,0.00,,---,0.00,VWS V13.00,2013-08-08 11:11:00,
2013-08-08 07:16:00,80.5,73.4,30.06,SE,129,5.0,11.0,79,0.00,,---,0.00,VWS V13.00,2013-08-08 11:16:00,
2013-08-08 07:21:00,80.5,73.4,30.06,SE,132,7.0,12.0,79,0.00,,---,0.00,VWS V13.00,2013-08-08 11:21:00,
2013-08-08 07:26:00,80.4,73.3,30.06,SE,126,7.0,12.0,79,0.00,,---,0.00,VWS V13.00,2013-08-08 11:26:00,
2013-08-08 07:31:00,80.5,73.4,30.06,East,93,7.0,12.0,79,0.00,,---,0.00,VWS V13.00,2013-08-08 11:31:00,
2013-08-08 07:36:00,80.7,73.6,30.06,SE,136,6.0,12.0,79,0.00,,---,0.00,VWS V13.00,2013-08-08 11:36:00,
2013-08-08 07:41:00,80.9,73.8,30.07,SE,146,6.0,12.0,79,0.00,,---,0.00,VWS V13.00,2013-08-08 11:41:00,
2013-08-08 07:46:00,81.1,74.0,30.07,SE,125,8.0,13.0,79,0.00,,---,0.00,VWS V13.00,2013-08-08 11:46:00,
2013-08-08 07:51:00,81.2,74.1,30.07,ESE,107,4.0,13.0,79,0.00,,---,0.00,VWS V13.00,2013-08-08 11:51:00,
2013-08-08 07:56:00,81.3,74.2,30.07,SE,136,5.0,13.0,79,0.00,,---,0.00,VWS V13.00,2013-08-08 11:56:00,
2013-08-08 08:01:00,81.4,74.3,30.07,ESE,117,7.0,13.0,79,0.00,,---,0.00,VWS V13.00,2013-08-08 12:01:00,
2013-08-08 08:06:00,81.5,74.4,30.07,SE,131,8.0,13.0,79,0.00,,---,0.00,VWS V13.00,2013-08-08 12:06:00,
2013-08-08 08:11:00,81.6,74.5,30.07,SE,133,9.0,13.0,79,0.00,,---,0.00,VWS V13.00,2013-08-08 12:11:00,
2013-08-08 08:15:00,81.6,74.5,30.07,ESE,119,9.0,13.0,79,0.00,,---,0.00,VWS V13.00,2013-08-08 12:15:00,
2013-08-08 08:20:00,81.8,74.7,30.07,SE,141,6.0,13.0,79,0.00,,---,0.00,VWS V13.00,2013-08-08 12:20:00,
2013-08-08 08:25:00,81.9,74.8,30.07,SE,145,10.0,13.0,79,0.00,,---,0.00,VWS V13.00,2013-08-08 12:25:00,
2013-08-08 08:30:00,82.0,74.8,30.07,SE,133,13.0,14.0,79,0.00,,---,0.00,VWS V13.00,2013-08-08 12:30:00,
2013-08-08 08:35:00,82.1,74.9,30.07,ESE,122,12.0,12.0,79,0.00,,---,0.00,VWS V13.00,2013-08-08 12:35:00,
2013-08-08 08:40:00,82.1,74.9,30.07,SE,132,6.0,14.0,79,0.00,,---,0.00,VWS V13.00,2013-08-08 12:40:00,
2013-08-08 08:45:00,82.3,75.1,30.07,ESE,123,8.0,14.0,79,0.00,,---,0.00,VWS V13.00,2013-08-08 12:45:00,
2013-08-08 08:50:00,82.5,75.3,30.07,SE,127,12.0,14.0,79,0.00,,---,0.00,VWS V13.00,2013-08-08 12:50:00,
2013-08-08 08:55:00,82.6,75.4,30.07,ESE,110,5.0,14.0,79,0.00,,---,0.00,VWS V13.00,2013-08-08 12:55:00,
2013-08-08 09:00:00,82.5,75.3,30.07,SE,143,8.0,14.0,79,0.00,,---,0.00,VWS V13.00,2013-08-08 13:00:00,
2013-08-08 09:05:00,82.5,75.3,30.07,SE,127,11.0,13.0,79,0.00,,---,0.00,VWS V13.00,2013-08-08 13:05:00,
2013-08-08 09:10:00,82.4,75.2,30.07,South,177,4.0,13.0,79,0.00,,---,0.00,VWS V13.00,2013-08-08 13:10:00,
2013-08-08 09:15:00,82.5,75.3,30.07,SE,133,4.0,13.0,79,0.00,,---,0.00,VWS V13.00,2013-08-08 13:15:00,
2013-08-08 09:20:00,82.7,75.5,30.07,SSE,153,6.0,13.0,79,0.00,,---,0.00,VWS V13.00,2013-08-08 13:20:00,
2013-08-08 09:25:00,82.7,75.5,30.07,SSW,200,5.0,13.0,79,0.00,,---,0.00,VWS V13.00,2013-08-08 13:25:00,
2013-08-08 09:30:00,82.9,75.7,30.07,South,187,5.0,13.0,79,0.00,,---,0.00,VWS V13.00,2013-08-08 13:30:00,
2013-08-08 09:35:00,83.2,76.0,30.08,SSW,202,5.0,8.0,79,0.00,,---,0.00,VWS V13.00,2013-08-08 13:35:00,
2013-08-08 09:40:00,83.5,76.3,30.08,SW,236,2.0,8.0,79,0.00,,---,0.00,VWS V13.00,2013-08-08 13:40:00,
2013-08-08 09:45:00,83.8,76.6,30.08,SSE,167,7.0,8.0,79,0.00,,---,0.00,VWS V13.00,2013-08-08 13:45:00,
2013-08-08 09:50:00,83.9,76.7,30.08,South,188,2.0,8.0,79,0.00,,---,0.00,VWS V13.00,2013-08-08 13:50:00,
2013-08-08 09:55:00,83.9,76.7,30.08,South,184,0.0,8.0,79,0.00,,---,0.00,VWS V13.00,2013-08-08 13:55:00,
2013-08-08 10:00:00,83.7,76.5,30.08,SSE,166,0.0,8.0,79,0.00,,---,0.00,VWS V13.00,2013-08-08 14:00:00,
2013-08-08 10:05:00,83.3,75.7,30.09,South,188,2.0,5.0,78,0.00,,---,0.00,VWS V13.00,2013-08-08 14:05:00,
2013-08-08 10:10:00,83.0,75.8,30.08,South,171,2.0,5.0,79,0.00,,---,0.00,VWS V13.00,2013-08-08 14:10:00,
2013-08-08 10:15:00,82.9,75.7,30.09,South,176,4.0,5.0,79,0.00,,---,0.00,VWS V13.00,2013-08-08 14:15:00,
2013-08-08 10:20:00,82.7,75.5,30.09,South,171,0.0,5.0,79,0.00,,---,0.00,VWS V13.00,2013-08-08 14:20:00,
2013-08-08 10:25:00,82.5,75.3,30.09,SSW,198,0.0,5.0,79,0.00,,---,0.00,VWS V13.00,2013-08-08 14:25:00,
2013-08-08 10:30:00,82.4,75.2,30.09,SSW,195,3.0,5.0,79,0.00,,---,0.00,VWS V13.00,2013-08-08 14:30:00,
2013-08-08 10:35:00,82.5,75.3,30.09,SSW,209,2.0,3.0,79,0.00,,---,0.00,VWS V13.00,2013-08-08 14:35:00,
2013-08-08 10:40:00,82.6,75.4,30.09,SSW,194,0.0,4.0,79,0.00,,---,0.00,VWS V13.00,2013-08-08 14:40:00,
2013-08-08 10:45:00,82.5,75.3,30.09,SSE,166,1.0,5.0,79,0.00,,---,0.00,VWS V13.00,2013-08-08 14:45:00,
2013-08-08 10:50:00,82.5,74.9,30.08,SSE,155,0.0,5.0,78,0.00,,---,0.00,VWS V13.00,2013-08-08 14:50:00,
2013-08-08 10:55:00,82.5,74.9,30.09,SE,136,0.0,5.0,78,0.00,,---,0.00,VWS V13.00,2013-08-08 14:55:00,
2013-08-08 11:00:00,82.5,74.9,30.08,South,175,1.0,5.0,78,0.00,,---,0.00,VWS V13.00,2013-08-08 15:00:00,
2013-08-08 11:05:00,82.5,75.3,30.08,SSE,158,0.0,5.0,79,0.00,,---,0.00,VWS V13.00,2013-08-08 15:05:00,
2013-08-08 11:10:00,83.1,75.9,30.08,South,174,4.0,5.0,79,0.00,,---,0.00,VWS V13.00,2013-08-08 15:10:00,
2013-08-08 11:15:00,83.8,76.6,30.09,South,173,4.0,6.0,79,0.00,,---,0.00,VWS V13.00,2013-08-08 15:15:00,
2013-08-08 11:20:00,84.2,76.6,30.09,SSE,161,1.0,6.0,78,0.00,,---,0.00,VWS V13.00,2013-08-08 15:20:00,
2013-08-08 11:25:00,84.6,77.0,30.09,SSW,210,3.0,6.0,78,0.00,,---,0.00,VWS V13.00,2013-08-08 15:25:00,
2013-08-08 11:30:00,84.8,77.2,30.09,South,178,1.0,6.0,78,0.00,,---,0.00,VWS V13.00,2013-08-08 15:30:00,
2013-08-08 11:35:00,85.2,77.6,30.09,SSE,156,1.0,5.0,78,0.00,,---,0.00,VWS V13.00,2013-08-08 15:35:00,
2013-08-08 11:40:00,85.5,77.9,30.09,ESE,113,5.0,6.0,78,0.00,,---,0.00,VWS V13.00,2013-08-08 15:40:00,
2013-08-08 11:45:00,85.5,77.9,30.08,SSE,153,2.0,6.0,78,0.00,,---,0.00,VWS V13.00,2013-08-08 15:45:00,
2013-08-08 11:50:00,85.8,78.2,30.08,SE,146,4.0,6.0,78,0.00,,---,0.00,VWS V13.00,2013-08-08 15:50:00,
2013-08-08 11:55:00,85.9,77.9,30.08,SE,141,5.0,7.0,77,0.00,,---,0.00,VWS V13.00,2013-08-08 15:55:00,
2013-08-08 12:00:00,85.9,77.9,30.08,SE,128,5.0,7.0,77,0.00,,---,0.00,VWS V13.00,2013-08-08 16:00:00,
2013-08-08 12:05:00,86.0,77.9,30.08,SE,140,0.0,6.0,77,0.00,,---,0.00,VWS V13.00,2013-08-08 16:05:00,
2013-08-08 12:10:00,86.2,78.2,30.08,SE,140,4.0,6.0,77,0.00,,---,0.00,VWS V13.00,2013-08-08 16:10:00,
2013-08-08 12:15:00,86.5,78.4,30.08,South,188,3.0,7.0,77,0.00,,---,0.00,VWS V13.00,2013-08-08 16:15:00,
2013-08-08 12:20:00,86.7,78.6,30.08,South,189,3.0,7.0,77,0.00,,---,0.00,VWS V13.00,2013-08-08 16:20:00,
2013-08-08 12:25:00,86.9,78.8,30.08,East,98,0.0,7.0,77,0.00,,---,0.00,VWS V13.00,2013-08-08 16:25:00,
2013-08-08 12:30:00,87.1,79.0,30.08,SSW,193,2.0,7.0,77,0.00,,---,0.00,VWS V13.00,2013-08-08 16:30:00,
2013-08-08 12:35:00,87.0,78.5,30.08,South,169,4.0,7.0,76,0.00,,---,0.00,VWS V13.00,2013-08-08 16:35:00,
2013-08-08 12:40:00,87.1,78.6,30.08,SSE,157,5.0,8.0,76,0.00,,---,0.00,VWS V13.00,2013-08-08 16:40:00,
2013-08-08 12:45:00,87.0,78.5,30.08,SSE,153,1.0,9.0,76,0.00,,---,0.00,VWS V13.00,2013-08-08 16:45:00,
2013-08-08 12:50:00,87.1,78.6,30.08,South,172,1.0,9.0,76,0.00,,---,0.00,VWS V13.00,2013-08-08 16:50:00,
2013-08-08 12:55:00,87.1,78.6,30.08,SE,128,5.0,9.0,76,0.00,,---,0.00,VWS V13.00,2013-08-08 16:55:00,
2013-08-08 13:00:00,87.0,78.5,30.08,ESE,116,0.0,9.0,76,0.00,,---,0.00,VWS V13.00,2013-08-08 17:00:00,
2013-08-08 13:05:00,87.1,78.6,30.08,SSW,203,2.0,8.0,76,0.00,,---,0.00,VWS V13.00,2013-08-08 17:05:00,
2013-08-08 13:10:00,87.1,78.6,30.07,SSE,149,5.0,8.0,76,0.00,,---,0.00,VWS V13.00,2013-08-08 17:10:00,
2013-08-08 13:15:00,87.3,78.8,30.07,SSE,157,5.0,8.0,76,0.00,,---,0.00,VWS V13.00,2013-08-08 17:15:00,
2013-08-08 13:20:00,87.6,79.1,30.07,SSE,163,4.0,8.0,76,0.00,,---,0.00,VWS V13.00,2013-08-08 17:20:00,
2013-08-08 13:25:00,87.8,79.3,30.07,SE,138,2.0,8.0,76,0.00,,---,0.00,VWS V13.00,2013-08-08 17:25:00,
2013-08-08 13:30:00,87.8,78.9,30.08,SSE,168,0.0,8.0,75,0.00,,---,0.00,VWS V13.00,2013-08-08 17:30:00,
2013-08-08 13:35:00,87.8,78.9,30.07,South,173,6.0,6.0,75,0.00,,---,0.00,VWS V13.00,2013-08-08 17:35:00,
2013-08-08 13:40:00,87.8,78.9,30.08,South,178,5.0,8.0,75,0.00,,---,0.00,VWS V13.00,2013-08-08 17:40:00,
2013-08-08 13:45:00,87.3,78.4,30.08,South,182,1.0,8.0,75,0.00,,---,0.00,VWS V13.00,2013-08-08 17:45:00,
2013-08-08 13:50:00,86.9,78.0,30.08,SSW,195,3.0,8.0,75,0.00,,---,0.00,VWS V13.00,2013-08-08 17:50:00,
2013-08-08 13:55:00,86.5,77.6,30.08,SSE,156,2.0,8.0,75,0.00,,---,0.00,VWS V13.00,2013-08-08 17:55:00,
2013-08-08 14:00:00,86.0,77.2,30.08,South,173,6.0,8.0,75,0.00,,---,0.00,VWS V13.00,2013-08-08 18:00:00,
2013-08-08 14:05:00,85.8,77.0,30.08,South,180,5.0,7.0,75,0.00,,---,0.00,VWS V13.00,2013-08-08 18:05:00,
2013-08-08 14:10:00,85.6,76.8,30.08,SW,225,3.0,7.0,75,0.00,,---,0.00,VWS V13.00,2013-08-08 18:10:00,
2013-08-08 14:15:00,85.7,76.9,30.07,SSW,202,4.0,7.0,75,0.00,,---,0.00,VWS V13.00,2013-08-08 18:15:00,
2013-08-08 14:20:00,86.2,77.8,30.07,SE,145,1.0,7.0,76,0.00,,---,0.00,VWS V13.00,2013-08-08 18:20:00,
2013-08-08 14:25:00,86.8,77.9,30.07,South,172,6.0,8.0,75,0.00,,---,0.00,VWS V13.00,2013-08-08 18:25:00,
2013-08-08 14:30:00,87.1,78.2,30.07,South,184,0.0,9.0,75,0.00,,---,0.00,VWS V13.00,2013-08-08 18:30:00,
2013-08-08 14:35:00,87.1,78.2,30.07,SSW,196,4.0,8.0,75,0.00,,---,0.00,VWS V13.00,2013-08-08 18:35:00,
2013-08-08 14:40:00,87.3,78.4,30.07,SSE,165,6.0,9.0,75,0.00,,---,0.00,VWS V13.00,2013-08-08 18:40:00,
2013-08-08 14:45:00,87.4,78.5,30.06,SE,146,7.0,9.0,75,0.00,,---,0.00,VWS V13.00,2013-08-08 18:45:00,
2013-08-08 14:50:00,87.4,78.5,30.07,WSW,258,2.0,9.0,75,0.00,,---,0.00,VWS V13.00,2013-08-08 18:50:00,
2013-08-08 14:55:00,87.4,78.5,30.06,SE,141,1.0,9.0,75,0.00,,---,0.00,VWS V13.00,2013-08-08 18:55:00,
2013-08-08 15:00:00,87.4,78.1,30.07,South,182,5.0,9.0,74,0.00,,---,0.00,VWS V13.00,2013-08-08 19:00:00,
2013-08-08 15:05:00,87.2,77.9,30.07,South,182,5.0,10.0,74,0.00,,---,0.00,VWS V13.00,2013-08-08 19:05:00,
2013-08-08 15:10:00,87.1,77.8,30.07,South,188,6.0,10.0,74,0.00,,---,0.00,VWS V13.00,2013-08-08 19:10:00,
2013-08-08 15:15:00,87.1,77.8,30.07,South,188,6.0,10.0,74,0.00,,---,0.00,VWS V13.00,2013-08-08 19:15:00,
2013-08-08 15:20:00,87.3,78.0,30.06,SW,215,3.0,10.0,74,0.00,,---,0.00,VWS V13.00,2013-08-08 19:20:00,
2013-08-08 15:25:00,87.3,78.0,30.07,South,186,3.0,10.0,74,0.00,,---,0.00,VWS V13.00,2013-08-08 19:25:00,
2013-08-08 15:30:00,87.2,77.9,30.07,South,183,4.0,10.0,74,0.00,,---,0.00,VWS V13.00,2013-08-08 19:30:00,
2013-08-08 15:35:00,87.1,77.8,30.06,SSE,165,4.0,8.0,74,0.00,,---,0.00,VWS V13.00,2013-08-08 19:35:00,
2013-08-08 15:40:00,87.1,77.8,30.06,SSW,205,5.0,8.0,74,0.00,,---,0.00,VWS V13.00,2013-08-08 19:40:00,
2013-08-08 15:45:00,87.2,77.9,30.06,South,173,4.0,9.0,74,0.00,,---,0.00,VWS V13.00,2013-08-08 19:45:00,
2013-08-08 15:50:00,87.2,77.9,30.06,SSW,193,7.0,10.0,74,0.00,,---,0.00,VWS V13.00,2013-08-08 19:50:00,
2013-08-08 15:56:00,87.1,77.8,30.06,South,189,9.0,10.0,74,0.00,,---,0.00,VWS V13.00,2013-08-08 19:56:00,
2013-08-08 16:01:00,86.8,77.5,30.05,SSE,165,1.0,10.0,74,0.00,,---,0.00,VWS V13.00,2013-08-08 20:01:00,
2013-08-08 16:06:00,86.6,77.3,30.05,South,185,7.0,10.0,74,0.00,,---,0.00,VWS V13.00,2013-08-08 20:06:00,
2013-08-08 16:11:00,86.6,77.3,30.05,South,171,7.0,10.0,74,0.00,,---,0.00,VWS V13.00,2013-08-08 20:11:00,
2013-08-08 16:16:00,86.7,77.4,30.05,South,190,4.0,10.0,74,0.00,,---,0.00,VWS V13.00,2013-08-08 20:16:00,
2013-08-08 16:21:00,86.8,77.5,30.05,South,182,6.0,10.0,74,0.00,,---,0.00,VWS V13.00,2013-08-08 20:21:00,
2013-08-08 16:26:00,86.9,77.6,30.05,South,184,5.0,10.0,74,0.00,,---,0.00,VWS V13.00,2013-08-08 20:26:00,
2013-08-08 16:31:00,87.0,77.7,30.05,SW,228,0.0,10.0,74,0.00,,---,0.00,VWS V13.00,2013-08-08 20:31:00,
2013-08-08 16:36:00,87.1,77.8,30.05,South,189,5.0,11.0,74,0.00,,---,0.00,VWS V13.00,2013-08-08 20:36:00,
2013-08-08 16:41:00,87.1,77.8,30.05,South,171,4.0,11.0,74,0.00,,---,0.00,VWS V13.00,2013-08-08 20:41:00,
2013-08-08 16:46:00,87.1,77.8,30.05,SSW,200,2.0,11.0,74,0.00,,---,0.00,VWS V13.00,2013-08-08 20:46:00,
2013-08-08 16:51:00,87.1,77.8,30.05,SSW,202,6.0,11.0,74,0.00,,---,0.00,VWS V13.00,2013-08-08 20:51:00,
2013-08-08 16:56:00,87.2,77.9,30.06,South,181,6.0,11.0,74,0.00,,---,0.00,VWS V13.00,2013-08-08 20:56:00,
2013-08-08 17:01:00,87.2,77.5,30.06,South,189,6.0,11.0,73,0.00,,---,0.00,VWS V13.00,2013-08-08 21:01:00,
2013-08-08 17:06:00,87.1,77.4,30.06,SSW,207,5.0,10.0,73,0.00,,---,0.00,VWS V13.00,2013-08-08 21:06:00,
2013-08-08 17:12:00,87.0,77.3,30.06,SSE,154,8.0,10.0,73,0.00,,---,0.00,VWS V13.00,2013-08-08 21:12:00,
2013-08-08 17:16:00,86.9,77.2,30.06,SSW,197,2.0,10.0,73,0.00,,---,0.00,VWS V13.00,2013-08-08 21:16:00,
2013-08-08 17:21:00,86.8,77.1,30.06,SSW,206,8.0,10.0,73,0.00,,---,0.00,VWS V13.00,2013-08-08 21:21:00,
2013-08-08 17:27:00,86.5,76.8,30.05,South,181,4.0,10.0,73,0.00,,---,0.00,VWS V13.00,2013-08-08 21:27:00,
2013-08-08 17:32:00,86.5,77.2,30.05,SW,223,2.0,4.0,74,0.00,,---,0.00,VWS V13.00,2013-08-08 21:32:00,
2013-08-08 17:37:00,86.6,76.9,30.05,South,188,0.0,9.0,73,0.00,,---,0.00,VWS V13.00,2013-08-08 21:37:00,
2013-08-08 17:42:00,86.5,76.8,30.05,SSE,153,2.0,9.0,73,0.00,,---,0.00,VWS V13.00,2013-08-08 21:42:00,
2013-08-08 17:47:00,86.4,76.7,30.05,SSW,198,4.0,9.0,73,0.00,,---,0.00,VWS V13.00,2013-08-08 21:47:00,
2013-08-08 17:52:00,86.3,76.6,30.05,SSE,156,1.0,10.0,73,0.00,,---,0.00,VWS V13.00,2013-08-08 21:52:00,
2013-08-08 17:57:00,86.1,76.4,30.05,South,191,5.0,10.0,73,0.00,,---,0.00,VWS V13.00,2013-08-08 21:57:00,
2013-08-08 18:02:00,85.8,76.2,30.05,South,178,2.0,11.0,73,0.00,,---,0.00,VWS V13.00,2013-08-08 22:02:00,
2013-08-08 18:07:00,85.6,76.0,30.04,SSW,192,6.0,11.0,73,0.00,,---,0.00,VWS V13.00,2013-08-08 22:07:00,
2013-08-08 18:13:00,85.3,76.1,30.04,SSW,197,4.0,11.0,74,0.00,,---,0.00,VWS V13.00,2013-08-08 22:13:00,
2013-08-08 18:18:00,85.1,75.9,30.04,South,173,1.0,11.0,74,0.00,,---,0.00,VWS V13.00,2013-08-08 22:18:00,
2013-08-08 18:23:00,85.0,75.8,30.04,SSW,203,2.0,11.0,74,0.00,,---,0.00,VWS V13.00,2013-08-08 22:23:00,
2013-08-08 18:28:00,84.8,75.6,30.04,South,184,3.0,11.0,74,0.00,,---,0.00,VWS V13.00,2013-08-08 22:28:00,
2013-08-08 18:33:00,84.6,75.4,30.04,South,190,4.0,9.0,74,0.00,,---,0.00,VWS V13.00,2013-08-08 22:33:00,
2013-08-08 18:38:00,84.4,75.2,30.04,SSW,211,7.0,9.0,74,0.00,,---,0.00,VWS V13.00,2013-08-08 22:38:00,
2013-08-08 18:43:00,84.3,75.1,30.04,SSW,202,8.0,10.0,74,0.00,,---,0.00,VWS V13.00,2013-08-08 22:43:00,
2013-08-08 18:48:00,84.2,75.4,30.04,SSW,211,1.0,10.0,75,0.00,,---,0.00,VWS V13.00,2013-08-08 22:48:00,
2013-08-08 18:53:00,84.0,75.2,30.04,South,190,6.0,10.0,75,0.00,,---,0.00,VWS V13.00,2013-08-08 22:53:00,
2013-08-08 18:59:00,83.9,75.1,30.04,South,169,2.0,10.0,75,0.00,,---,0.00,VWS V13.00,2013-08-08 22:59:00,
2013-08-08 19:04:00,83.8,75.0,30.04,SSW,213,4.0,9.0,75,0.00,,---,0.00,VWS V13.00,2013-08-08 23:04:00,
2013-08-08 19:09:00,83.7,74.9,30.04,South,171,4.0,9.0,75,0.00,,---,0.00,VWS V13.00,2013-08-08 23:09:00,
2013-08-08 19:14:00,83.6,74.8,30.04,SSW,200,4.0,9.0,75,0.00,,---,0.00,VWS V13.00,2013-08-08 23:14:00,
2013-08-08 19:20:00,83.6,74.8,30.04,South,180,2.0,9.0,75,0.00,,---,0.00,VWS V13.00,2013-08-08 23:20:00,
2013-08-08 19:25:00,83.4,74.7,30.04,SSE,148,6.0,10.0,75,0.00,,---,0.00,VWS V13.00,2013-08-08 23:25:00,
2013-08-08 19:30:00,83.4,75.1,30.04,SSE,155,1.0,10.0,76,0.00,,---,0.00,VWS V13.00,2013-08-08 23:30:00,
2013-08-08 19:35:00,83.4,75.1,30.04,SSW,205,2.0,8.0,76,0.00,,---,0.00,VWS V13.00,2013-08-08 23:35:00,
2013-08-08 19:40:00,83.3,74.9,30.04,South,171,4.0,9.0,76,0.00,,---,0.00,VWS V13.00,2013-08-08 23:40:00,
2013-08-08 19:46:00,83.2,74.8,30.04,South,186,6.0,10.0,76,0.00,,---,0.00,VWS V13.00,2013-08-08 23:46:00,
2013-08-08 19:51:00,83.1,74.8,30.04,South,170,0.0,10.0,76,0.00,,---,0.00,VWS V13.00,2013-08-08 23:51:00,
2013-08-08 19:56:00,83.0,74.7,30.04,SSE,148,1.0,11.0,76,0.00,,---,0.00,VWS V13.00,2013-08-08 23:56:00,
2013-08-08 20:01:00,83.0,74.7,30.05,South,169,6.0,11.0,76,0.00,,---,0.00,VWS V13.00,2013-08-09 00:01:00,
2013-08-08 20:06:00,82.8,74.5,30.05,South,187,4.0,11.0,76,0.00,,---,0.00,VWS V13.00,2013-08-09 00:06:00,
2013-08-08 20:12:00,82.7,74.4,30.05,SW,220,6.0,11.0,76,0.00,,---,0.00,VWS V13.00,2013-08-09 00:12:00,
2013-08-08 20:17:00,82.6,74.7,30.05,South,179,6.0,11.0,77,0.00,,---,0.00,VWS V13.00,2013-08-09 00:17:00,
2013-08-08 20:23:00,82.5,74.6,30.05,South,171,4.0,11.0,77,0.00,,---,0.00,VWS V13.00,2013-08-09 00:23:00,
2013-08-08 20:28:00,82.4,74.5,30.06,South,169,2.0,11.0,77,0.00,,---,0.00,VWS V13.00,2013-08-09 00:28:00,
2013-08-08 20:33:00,82.3,74.4,30.06,SSW,198,10.0,10.0,77,0.00,,---,0.00,VWS V13.00,2013-08-09 00:33:00,
2013-08-08 20:38:00,82.3,74.4,30.06,SSW,211,5.0,10.0,77,0.00,,---,0.00,VWS V13.00,2013-08-09 00:38:00,
2013-08-08 20:43:00,82.3,74.4,30.07,WSW,240,4.0,10.0,77,0.00,,---,0.00,VWS V13.00,2013-08-09 00:43:00,
2013-08-08 20:48:00,82.3,74.4,30.07,SSW,211,3.0,10.0,77,0.00,,---,0.00,VWS V13.00,2013-08-09 00:48:00,
2013-08-08 20:54:00,82.2,74.3,30.07,West,269,4.0,10.0,77,0.00,,---,0.00,VWS V13.00,2013-08-09 00:54:00,
2013-08-08 20:59:00,82.2,74.3,30.07,SSW,196,3.0,10.0,77,0.00,,---,0.00,VWS V13.00,2013-08-09 00:59:00,
2013-08-08 21:04:00,82.1,74.2,30.07,SSW,198,6.0,8.0,77,0.00,,---,0.00,VWS V13.00,2013-08-09 01:04:00,
2013-08-08 21:09:00,82.1,74.2,30.07,SSW,207,4.0,9.0,77,0.00,,---,0.00,VWS V13.00,2013-08-09 01:09:00,
2013-08-08 21:14:00,82.1,74.6,30.07,South,183,5.0,10.0,78,0.00,,---,0.00,VWS V13.00,2013-08-09 01:14:00,
2013-08-08 21:19:00,82.1,74.6,30.07,SSW,196,5.0,10.0,78,0.00,,---,0.00,VWS V13.00,2013-08-09 01:19:00,
2013-08-08 21:24:00,82.0,74.5,30.08,SW,214,6.0,10.0,78,0.00,,---,0.00,VWS V13.00,2013-08-09 01:24:00,
2013-08-08 21:29:00,82.0,74.5,30.08,SSW,194,7.0,10.0,78,0.00,,---,0.00,VWS V13.00,2013-08-09 01:29:00,
2013-08-08 21:34:00,82.0,74.5,30.08,South,180,7.0,9.0,78,0.00,,---,0.00,VWS V13.00,2013-08-09 01:34:00,
2013-08-08 21:39:00,82.0,74.5,30.08,South,177,8.0,9.0,78,0.00,,---,0.00,VWS V13.00,2013-08-09 01:39:00,
2013-08-08 21:44:00,82.0,74.5,30.08,SW,224,3.0,11.0,78,0.00,,---,0.00,VWS V13.00,2013-08-09 01:44:00,
2013-08-08 21:49:00,82.0,74.5,30.09,South,183,4.0,11.0,78,0.00,,---,0.00,VWS V13.00,2013-08-09 01:49:00,
2013-08-08 21:54:00,82.0,74.5,30.09,SSW,194,3.0,11.0,78,0.00,,---,0.00,VWS V13.00,2013-08-09 01:54:00,
2013-08-08 22:00:00,82.0,74.5,30.09,SSW,209,4.0,11.0,78,0.00,,---,0.00,VWS V13.00,2013-08-09 02:00:00,
2013-08-08 22:05:00,82.0,74.5,30.09,SSW,198,1.0,6.0,78,0.00,,---,0.00,VWS V13.00,2013-08-09 02:05:00,
2013-08-08 22:10:00,81.9,74.4,30.09,SSW,209,3.0,7.0,78,0.00,,---,0.00,VWS V13.00,2013-08-09 02:10:00,
2013-08-08 22:15:00,81.9,74.4,30.09,South,169,5.0,8.0,78,0.00,,---,0.00,VWS V13.00,2013-08-09 02:15:00,
2013-08-08 22:21:00,81.9,74.4,30.09,South,186,6.0,9.0,78,0.00,,---,0.00,VWS V13.00,2013-08-09 02:21:00,
2013-08-08 22:26:00,81.8,74.3,30.08,SSW,211,2.0,9.0,78,0.00,,---,0.00,VWS V13.00,2013-08-09 02:26:00,
2013-08-08 22:31:00,81.7,74.2,30.09,SSW,205,4.0,9.0,78,0.00,,---,0.00,VWS V13.00,2013-08-09 02:31:00,
2013-08-08 22:36:00,81.6,74.1,30.08,South,190,6.0,9.0,78,0.00,,---,0.00,VWS V13.00,2013-08-09 02:36:00,
2013-08-08 22:41:00,81.6,74.1,30.08,South,175,1.0,9.0,78,0.00,,---,0.00,VWS V13.00,2013-08-09 02:41:00,
2013-08-08 22:47:00,81.6,74.5,30.08,SSE,150,2.0,9.0,79,0.00,,---,0.00,VWS V13.00,2013-08-09 02:47:00,
2013-08-08 22:52:00,81.6,74.5,30.08,SW,223,2.0,9.0,79,0.00,,---,0.00,VWS V13.00,2013-08-09 02:52:00,
2013-08-08 22:57:00,81.7,74.6,30.08,SSE,162,0.0,9.0,79,0.00,,---,0.00,VWS V13.00,2013-08-09 02:57:00,
2013-08-08 23:03:00,81.6,74.5,30.08,South,190,2.0,7.0,79,0.00,,---,0.00,VWS V13.00,2013-08-09 03:03:00,
2013-08-08 23:09:00,81.7,74.6,30.08,South,186,7.0,8.0,79,0.00,,---,0.00,VWS V13.00,2013-08-09 03:09:00,
2013-08-08 23:14:00,81.7,74.6,30.08,South,180,5.0,9.0,79,0.00,,---,0.00,VWS V13.00,2013-08-09 03:14:00,
2013-08-08 23:20:00,81.7,74.6,30.08,SSW,196,2.0,9.0,79,0.00,,---,0.00,VWS V13.00,2013-08-09 03:20:00,
2013-08-08 23:25:00,81.6,74.5,30.08,SSE,154,2.0,9.0,79,0.00,,---,0.00,VWS V13.00,2013-08-09 03:25:00,
2013-08-08 23:30:00,81.6,74.5,30.08,SW,222,6.0,9.0,79,0.00,,---,0.00,VWS V13.00,2013-08-09 03:30:00,
2013-08-08 23:35:00,81.6,74.5,30.08,SSW,211,6.0,9.0,79,0.00,,---,0.00,VWS V13.00,2013-08-09 03:35:00,
2013-08-08 23:40:00,81.6,74.5,30.08,SSW,200,5.0,10.0,79,0.00,,---,0.00,VWS V13.00,2013-08-09 03:40:00,
2013-08-08 23:45:00,81.6,74.5,30.08,SSW,202,6.0,10.0,79,0.00,,---,0.00,VWS V13.00,2013-08-09 03:45:00,
2013-08-08 23:51:00,81.7,74.6,30.08,SSW,192,4.0,10.0,79,0.00,,---,0.00,VWS V13.00,2013-08-09 03:51:00,
2013-08-08 23:56:00,81.7,74.6,30.08,SSW,199,5.0,10.0,79,0.00,,---,0.00,VWS V13.00,2013-08-09 03:56:00,